Location: La Bastide
(43.1661°N, 1.2755°E)
Time: 15:05:38
(UTC+00:00)

Gbstr 26 Del rocket - Pass Details

Date: 13 December 2025
Orbit: 490 x 1218 km, 51.8° (Epoch: 19 January)

Event Time Altitude Azimuth Distance (km) Brightness Sun altitude
Rises 17:06:13 0° 251° (WSW) 2,896 8.9 -8.3°
Reaches altitude 10° 17:08:43 10° 256° (WSW) 1,896 7.2 -8.7°
Maximum altitude 17:12:49 50° 333° (NNW) 676 3.3 -9.4°
Enters shadow 17:16:07 13° 48° (NE) 1,552 4.5 -9.9°
